Powrót do katalogu

STARLINK-33603

AktywnyŁącznośćVLEO
NORAD 63282·PAYLOAD·🇺🇸 United States

Wystrzelony Mar 15, 2025 z Cape Canaveral Space Force Station

Loading…

Następne Przeloty (najbliższe 24 godziny)

TLE

ŚwieżeSource: CelesTrak SupGP

Epoka: Sep 15, 2026, 03:40 UTC

1 63282C 25053T   26258.15326389 -.00039420  00000+0 -14278-2 0  2587
2 63282  42.9991 252.0785 0001314 268.8531 171.4558 15.27596962    12

Śledź STARLINK-33603 w czasie rzeczywistym z AllMySat

Download on the App Store